Weather in Hazar

Turkmenistan     39°24′19″N   53°07′51″E
temp.,
°C
wind,
m/s
gust,
m/s
humid.,
%
clouds,
%
prec.,
mm/h
press.,
hPa
HPBL,
m
1 august, sun
sun123:00+28n1013545 0.0 1008179
02:00+27nw445918 0.0 100844
05:00+29e2238100 0.0 100817
08:00+29sw1132100 0.0 101012
11:00+31ene3326100 0.0 1010253
14:00+32nw1126100 0.0 1009513
17:00+31nw673652 0.0 1008244
20:00+29nw695128 0.0 1008130
2 august, mon
mon223:00+28nnw811555 0.0 1008121
02:00+28n57493 0.0 100865
05:00+27ne44375 0.0 100731
08:00+29e44306 0.0 100863
11:00+33se352432 0.0 1009478
14:00+34wsw232833 0.0 1009950
17:00+32w653499 0.0 1008472
20:00+29nw584589 0.0 1008151
3 august, tue
tue323:00+29nnw5847100 0.0 100894
02:00+28n4749100 0.0 100878
05:00+28wnw225312 0.0 100814
08:00+29sse11425 0.0 100927
11:00+34sse562810 0.0 1010374
14:00+32sw44414 0.0 1010379
17:00+31w76472 0.0 1009315
20:00+29nw6955100 0.0 1009166
4 august, wed
wed423:00+29n5750100 0.0 100983
02:00+29nnw224993 0.0 100917
05:00+28nw3358100 0.0 100935
08:00+28wnw7862100 0.0 1011188
11:00+32e563883 0.0 101183
14:00+33w544220 0.0 1011393
17:00+33nw553699 0.0 1010326
20:00+31nw575326 0.0 1009103
5 august, thu
thu523:00+29n69535 0.0 101093
02:00+29nne465117 0.0 101070
05:00+29n444835 0.0 100949
08:00+30nnw45495 0.0 101093
11:00+32nnw333739 0.0 1010264
14:00+33nw65415 0.0 1010462
17:00+31nw912420 0.0 1009248
20:00+31nnw711460 0.0 1009185